Liberal, Kansas, United States (67901)
Lat: 37.04N, Lon: 100.92W
Wx Zone: KSZ086
Local Info
Past Weather Observations for Wednesday, April 16, 2014

NOTE: This archive is for the closest National Weather Service station to Liberal. Information may differ from the station used for current weather conditions.

Time Weather Temperature Dewpoint Humidity Pressure Winds Precip Visibility
23:55
Clear
50°F / 10°C 30°F / -1°C 47% 30.09 in
(1019 mb)
ENE 15 mph
(ENE 24 kph)
- 10SM
23:35
Clear
50°F / 10°C 30°F / -1°C 47% 30.09 in
(1019 mb)
NE 15 mph
(NE 24 kph)
- 10SM
23:15
Clear
50°F / 10°C 30°F / -1°C 47% 30.09 in
(1019 mb)
NE 16.1 mph
(NE 26 kph)
- 10SM
22:55
Clear
52°F / 11°C 28°F / -2°C 41% 30.06 in
(1018 mb)
NE 17.3 mph
(NE 28 kph)
- 10SM
22:35
Clear
52°F / 11°C 28°F / -2°C 41% 30.06 in
(1018 mb)
NE 19.6 mph
(NE 32 kph)
- 10SM
22:15
Clear
52°F / 11°C 28°F / -2°C 41% 30.06 in
(1018 mb)
NE 19.6 mph
(NE 32 kph)
- 10SM
21:55
Clear
54°F / 12°C 28°F / -2°C 38% 30.04 in
(1017 mb)
NE 20.7 mph
(NE 33 kph)
- 10SM
21:35
Clear
54°F / 12°C 28°F / -2°C 38% 30.04 in
(1017 mb)
NE 23 mph
(NE 37 kph)
- 10SM
21:15
Clear
54°F / 12°C 28°F / -2°C 38% 30.01 in
(1016 mb)
NE 23 mph
(NE 37 kph)
- 10SM
20:55
Clear
55°F / 13°C 28°F / -2°C 36% 30.01 in
(1016 mb)
NE 19.6 mph
(NE 32 kph)
- 10SM
20:35
Clear
54°F / 12°C 27°F / -3°C 35% 30.01 in
(1016 mb)
NE 17.3 mph
(NE 28 kph)
- 10SM
20:15
Clear
55°F / 13°C 27°F / -3°C 33% 29.98 in
(1015 mb)
NNE 13.8 mph
(NNE 22 kph)
- 10SM
19:55
Clear
57°F / 14°C 28°F / -2°C 33% 29.98 in
(1015 mb)
NNE 11.5 mph
(NNE 19 kph)
- 10SM
19:35
Clear
59°F / 15°C 28°F / -2°C 31% 29.98 in
(1015 mb)
NE 8.1 mph
(NE 13 kph)
- 10SM
19:15
Clear
61°F / 16°C 28°F / -2°C 29% 29.95 in
(1014 mb)
NE 8.1 mph
(NE 13 kph)
- 10SM
18:55
Clear
63°F / 17°C 28°F / -2°C 27% 29.95 in
(1014 mb)
ENE 9.2 mph
(ENE 15 kph)
- 10SM
18:35
Clear
63°F / 17°C 28°F / -2°C 27% 29.92 in
(1013 mb)
ENE 10.4 mph
(ENE 17 kph)
- 10SM
18:15
Clear
63°F / 17°C 28°F / -2°C 27% 29.92 in
(1013 mb)
ENE 12.7 mph
(ENE 20 kph)
- 10SM
17:55
Clear
64°F / 18°C 28°F / -2°C 26% 29.92 in
(1013 mb)
ENE 15 mph
(ENE 24 kph)
- 10SM
17:35
Clear
63°F / 17°C 27°F / -3°C 25% 29.92 in
(1013 mb)
NE 13.8 mph
(NE 22 kph)
- 10SM
17:15
Clear
64°F / 18°C 27°F / -3°C 24% 29.92 in
(1013 mb)
NE 15 mph
(NE 24 kph)
- 10SM
16:55
Clear
64°F / 18°C 28°F / -2°C 26% 29.92 in
(1013 mb)
NE 16.1 mph
(NE 26 kph)
- 10SM
16:35
Clear
64°F / 18°C 28°F / -2°C 26% 29.89 in
(1012 mb)
NE 16.1 mph
(NE 26 kph)
- 10SM
16:15
Clear
64°F / 18°C 28°F / -2°C 26% 29.89 in
(1012 mb)
NE 13.8 mph
(NE 22 kph)
- 10SM
15:55
Clear
64°F / 18°C 28°F / -2°C 26% 29.89 in
(1012 mb)
NNE 15 mph
(NNE 24 kph)
- 10SM
15:35
Clear
64°F / 18°C 28°F / -2°C 26% 29.89 in
(1012 mb)
NE 17.3 mph
(NE 28 kph)
- 10SM
15:15
Clear
63°F / 17°C 28°F / -2°C 27% 29.92 in
(1013 mb)
NE 15 mph
(NE 24 kph)
- 10SM
14:55
Clear
63°F / 17°C 27°F / -3°C 25% 29.92 in
(1013 mb)
ENE 15 mph
(ENE 24 kph)
- 10SM
14:35
Clear
64°F / 18°C 28°F / -2°C 26% 29.92 in
(1013 mb)
NE 18.4 mph
(NE 30 kph)
- 10SM
14:15
Clear
64°F / 18°C 28°F / -2°C 26% 29.92 in
(1013 mb)
NNE 15 mph
(NNE 24 kph)
- 10SM
13:55
Clear
64°F / 18°C 28°F / -2°C 26% 29.92 in
(1013 mb)
NE 17.3 mph
(NE 28 kph)
- 10SM
13:35
Clear
66°F / 19°C 28°F / -2°C 24% 29.89 in
(1012 mb)
N 19.6 mph
(N 32 kph)
- 10SM
13:15
Clear
66°F / 19°C 28°F / -2°C 24% 29.89 in
(1012 mb)
NNE 17.3 mph
(NNE 28 kph)
- 10SM
12:55
Clear
66°F / 19°C 28°F / -2°C 24% 29.89 in
(1012 mb)
NNE 21.9 mph
(NNE 35 kph)
- 10SM
12:35
Clear
68°F / 20°C 30°F / -1°C 24% 29.89 in
(1012 mb)
N 18.4 mph
(N 30 kph)
- 10SM
12:15
Clear
66°F / 19°C 30°F / -1°C 26% 29.89 in
(1012 mb)
N 20.7 mph
(N 33 kph)
- 10SM
11:55
Clear
66°F / 19°C 30°F / -1°C 26% 29.86 in
(1011 mb)
NE 23 mph
(NE 37 kph)
- 10SM
11:35
Clear
66°F / 19°C 30°F / -1°C 26% 29.86 in
(1011 mb)
NNE 19.6 mph
(NNE 32 kph)
- 10SM
11:15
Clear
64°F / 18°C 32°F / 0°C 30% 29.86 in
(1011 mb)
NE 17.3 mph
(NE 28 kph)
- 10SM
10:55
Clear
64°F / 18°C 30°F / -1°C 28% 29.86 in
(1011 mb)
N 17.3 mph
(N 28 kph)
- 10SM
10:35
Clear
63°F / 17°C 30°F / -1°C 30% 29.86 in
(1011 mb)
N 20.7 mph
(N 33 kph)
- 10SM
10:15
Clear
61°F / 16°C 30°F / -1°C 31% 29.86 in
(1011 mb)
N 23 mph
(N 37 kph)
- 10SM
09:55
Clear
61°F / 16°C 30°F / -1°C 31% 29.86 in
(1011 mb)
NNE 21.9 mph
(NNE 35 kph)
- 10SM
09:35
Clear
59°F / 15°C 28°F / -2°C 31% 29.83 in
(1010 mb)
NE 24.2 mph
(NE 39 kph)
- 10SM
09:15
Clear
57°F / 14°C 28°F / -2°C 33% 29.83 in
(1010 mb)
NNE 17.3 mph
(NNE 28 kph)
- 10SM
08:55
Clear
55°F / 13°C 25°F / -4°C 31% 29.83 in
(1010 mb)
N 10.4 mph
(N 17 kph)
- 10SM
08:35
Clear
52°F / 11°C 21°F / -6°C 30% 29.83 in
(1010 mb)
NW 5.8 mph
(NW 9 kph)
- 10SM
08:15
Clear
50°F / 10°C 19°F / -7°C 30% 29.8 in
(1009 mb)
SSW 6.9 mph
(SSW 11 kph)
- 10SM
07:55
Clear
48°F / 9°C 19°F / -7°C 32% 29.8 in
(1009 mb)
SSW 8.1 mph
(SSW 13 kph)
- 10SM
07:35
Clear
46°F / 8°C 19°F / -7°C 34% 29.8 in
(1009 mb)
SW 6.9 mph
(SW 11 kph)
- 10SM
07:15
Clear
46°F / 8°C 16°F / -9°C 29% 29.8 in
(1009 mb)
SSW 6.9 mph
(SSW 11 kph)
- 10SM
06:55
Clear
45°F / 7°C 16°F / -9°C 31% 29.74 in
(1007 mb)
SW 12.7 mph
(SW 20 kph)
- 10SM
06:35
Clear
45°F / 7°C 16°F / -9°C 31% 29.74 in
(1007 mb)
SSE 15 mph
(SSE 24 kph)
- 10SM
06:15
Clear
45°F / 7°C 14°F / -10°C 29% 29.71 in
(1006 mb)
SW 15 mph
(SW 24 kph)
- 10SM
05:55
Clear
45°F / 7°C 14°F / -10°C 29% 29.71 in
(1006 mb)
SSE 15 mph
(SSE 24 kph)
- 10SM
05:35
Clear
45°F / 7°C 14°F / -10°C 29% 29.71 in
(1006 mb)
SSE 15 mph
(SSE 24 kph)
- 10SM
05:15
Clear
46°F / 8°C 14°F / -10°C 27% 29.71 in
(1006 mb)
SSE 16.1 mph
(SSE 26 kph)
- 10SM
04:55
Clear
46°F / 8°C 14°F / -10°C 27% 29.71 in
(1006 mb)
SSE 17.3 mph
(SSE 28 kph)
- 10SM
04:35
Clear
46°F / 8°C 14°F / -10°C 27% 29.71 in
(1006 mb)
SSE 17.3 mph
(SSE 28 kph)
- 10SM
04:15
Clear
46°F / 8°C 14°F / -10°C 27% 29.71 in
(1006 mb)
SSE 17.3 mph
(SSE 28 kph)
- 10SM
03:55
Clear
48°F / 9°C 14°F / -10°C 25% 29.71 in
(1006 mb)
SSE 19.6 mph
(SSE 32 kph)
- 10SM
03:35
Clear
48°F / 9°C 16°F / -9°C 27% 29.71 in
(1006 mb)
S 20.7 mph
(S 33 kph)
- 10SM
03:15
Clear
48°F / 9°C 16°F / -9°C 27% 29.71 in
(1006 mb)
SSE 16.1 mph
(SSE 26 kph)
- 10SM
02:55
Clear
48°F / 9°C 14°F / -10°C 25% 29.71 in
(1006 mb)
S 18.4 mph
(S 30 kph)
- 10SM
02:35
Clear
48°F / 9°C 14°F / -10°C 25% 29.71 in
(1006 mb)
S 18.4 mph
(S 30 kph)
- 10SM
02:15
Clear
48°F / 9°C 14°F / -10°C 25% 29.71 in
(1006 mb)
S 20.7 mph
(S 33 kph)
- 10SM
01:55
Clear
50°F / 10°C 14°F / -10°C 24% 29.71 in
(1006 mb)
S 21.9 mph
(S 35 kph)
- 10SM
01:35
Clear
50°F / 10°C 14°F / -10°C 24% 29.74 in
(1007 mb)
S 24.2 mph
(S 39 kph)
- 10SM
01:15
Clear
50°F / 10°C 14°F / -10°C 24% 29.74 in
(1007 mb)
S 23 mph
(S 37 kph)
- 10SM
00:55
Clear
52°F / 11°C 14°F / -10°C 22% 29.74 in
(1007 mb)
S 21.9 mph
(S 35 kph)
- 10SM
00:35
Clear
52°F / 11°C 14°F / -10°C 22% 29.77 in
(1008 mb)
S 20.7 mph
(S 33 kph)
- 10SM
00:15
Clear
52°F / 11°C 14°F / -10°C 22% 29.77 in
(1008 mb)
S 23 mph
(S 37 kph)
- 10SM
Time Weather Temperature Dewpoint Humidity Pressure Winds Precip Visibility


Weather for websites

WeatherForYou.com, LLC is not responsible for any damages or problems caused by this service. Current weather conditions are obtained from the closest station including government and personal stations which may have varying degrees of accuracy. Weather forecasts are derived from the NOAA NDFD. Like all things, this site belongs to Jesus Christ... He just trusts me to maintain it. If you have any questions or comments email webmaster@weatherforyou.com

Copyright © 2014, WeatherForYou.com LLC. All rights reserved.